Pagrindinis puslapis
METAR-TAF:

METAR-TAF

Oro uostai :

Point Hope, Aliaska, Jungtinės Amerikos Valstijos

platuma: 68-21N, ilguma: 166-48W, Aukštis: 4 m

Dabartinis oras

Ataskaita buvo paskelbta 33 minutes, ne 06:56 UTC
Vėjas 6 kt iš Pietų
Temperatūra -28°C
Drėgmė 75%
Slėgis 1019 hPa
Matomumas: 16.1 km
Giedras dangus

METAR: PAPO 280656Z AUTO 17006KT 10SM CLR M28/M31 A3010 RMK AO2 SLP191 T12781306 FZRANO

Laikas: 22:29 (07:29 UTC)


TAF: trūkstamas

Orai ataskaitas ir orų prognozės (METAR, TAF).

turimą stotys yra geltonos ir raudonos taškus žemėlapyje.

Perkelti pele per norėdami pamatyti stoties vardą.

Tada spustelėkite, norėdami matyti oro stebėjimo ir prognozės.

Norėdami pakeisti žemėlapį: spustelėkite ant žalios mygtukų su juodo kryžiaus žemyn,; žalią mygtuką su brūkšneliu, jei norite nutolinti; arba žalių rodyklių gretimoms žemėlapius.


METAR-TAF: